| time (UTC) | temp C | wind direction | speed KPH | gust KPH | rain 1hr cm | rain 24hr cm | rain mn cm | humidity % | barometer mb |
| 20260502231525 | 25 | 1 | 12.9 | 22.5 | 0.00 | 0.00 | 0.00 | 40 | 1009.7 |
| 20260502230026 | 25 | 12 | 12.9 | 20.9 | 0.00 | 0.00 | 0.00 | 40 | 1009.8 |
| 20260502224522 | 25 | 336 | 12.9 | 22.5 | 0.00 | 0.00 | 0.00 | 40 | 1010.1 |
| 20260502223020 | 25 | 23 | 14.5 | 22.5 | 0.00 | 0.00 | 0.00 | 39 | 1010.3 |
| 20260502221518 | 25 | 4 | 16.1 | 24.1 | 0.00 | 0.00 | 0.00 | 40 | 1010.4 |
| 20260502220016 | 25 | 342 | 12.9 | 24.1 | 0.00 | 0.00 | 0.00 | 40 | 1010.5 |
| 20260502214519 | 24 | 335 | 12.9 | 25.7 | 0.00 | 0.00 | 0.00 | 42 | 1010.7 |
| 20260502213012 | 24 | 7 | 16.1 | 24.1 | 0.00 | 0.00 | 0.00 | 39 | 1010.9 |
| 20260502211522 | 24 | 8 | 17.7 | 24.1 | 0.00 | 0.00 | 0.00 | 41 | 1010.9 |
| 20260502210007 | 24 | 350 | 12.9 | 19.3 | 0.00 | 0.00 | 0.00 | 42 | 1011.1 |
| 20260502204505 | 23 | 262 | 9.7 | 17.7 | 0.00 | 0.00 | 0.00 | 43 | 1011.2 |
| 20260502203005 | 23 | 257 | 9.7 | 17.7 | 0.00 | 0.00 | 0.00 | 43 | 1011.4 |
| 20260502201504 | 23 | 278 | 9.7 | 19.3 | 0.00 | 0.00 | 0.00 | 43 | 1011.5 |
| 20260502200101 | 23 | 273 | 12.9 | 16.1 | 0.00 | 0.00 | 0.00 | 43 | 1011.6 |
| 20260502194602 | 22 | 289 | 9.7 | 19.3 | 0.00 | 0.00 | 0.00 | 44 | 1011.8 |
| 20260502193100 | 22 | 271 | 14.5 | 24.1 | 0.00 | 0.00 | 0.00 | 43 | 1011.9 |
| 20260502191555 | 22 | 245 | 11.3 | 17.7 | 0.00 | 0.00 | 0.00 | 45 | 1011.9 |
| 20260502190054 | 22 | 290 | 11.3 | 17.7 | 0.00 | 0.00 | 0.00 | 44 | 1011.9 |
| 20260502184553 | 21 | 250 | 11.3 | 20.9 | 0.00 | 0.00 | 0.00 | 45 | 1012.0 |
| 20260502183057 | 21 | 257 | 11.3 | 17.7 | 0.00 | 0.00 | 0.00 | 43 | 1012.0 |
| 20260502181551 | 21 | 283 | 9.7 | 17.7 | 0.00 | 0.00 | 0.00 | 40 | 1011.9 |
| 20260502163047 | 19 | 278 | 6.4 | 11.3 | 0.00 | 0.00 | 0.00 | 48 | 1012.1 |
| 20260502161551 | 18 | 273 | 4.8 | 9.7 | 0.00 | 0.00 | 0.00 | 51 | 1012.1 |
| 20260502151545 | 15 | 255 | 3.2 | 4.8 | 0.00 | 0.00 | 0.00 | 57 | 1011.9 |
| 20260502123034 | 12 | 171 | 0.0 | 6.4 | 0.00 | 0.00 | 0.00 | 59 | 1011.3 |
| 20260502121531 | 12 | 146 | 1.6 | 11.3 | 0.00 | 0.00 | 0.00 | 54 | 1011.2 |
| 20260502114531 | 13 | 196 | 3.2 | 4.8 | 0.00 | 0.00 | 0.00 | 53 | 1011.2 |
| 20260502113025 | 13 | 333 | 6.4 | 9.7 | 0.00 | 0.00 | 0.00 | 52 | 1011.1 |
| 20260502111519 | 16 | 321 | 4.8 | 11.3 | 0.00 | 0.00 | 0.00 | 44 | 1011.1 |
| 20260502110019 | 20 | 142 | 6.4 | 17.7 | 0.00 | 0.00 | 0.00 | 32 | 1011.2 |
| 20260502104521 | 20 | 106 | 3.2 | 12.9 | 0.00 | 0.00 | 0.00 | 30 | 1011.3 |
| 20260502103016 | 20 | 207 | 3.2 | 9.7 | 0.00 | 0.00 | 0.00 | 31 | 1011.2 |
| 20260502101515 | 20 | 109 | 12.9 | 22.5 | 0.00 | 0.00 | 0.00 | 31 | 1011.2 |
| 20260502091512 | 21 | 121 | 8.0 | 19.3 | 0.00 | 0.00 | 0.00 | 30 | 1011.3 |
| 20260502070108 | 18 | 226 | 1.6 | 8.0 | 0.00 | 0.00 | 0.00 | 38 | 1011.5 |
| 20260502064620 | 18 | 271 | 4.8 | 8.0 | 0.00 | 0.00 | 0.00 | 36 | 1011.5 |
| 20260502063117 | 18 | 253 | 4.8 | 12.9 | 0.00 | 0.00 | 0.00 | 38 | 1011.5 |
| 20260502061555 | 19 | 245 | 1.6 | 4.8 | 0.00 | 0.00 | 0.00 | 36 | 1011.5 |
| 20260502060053 | 20 | 187 | 3.2 | 9.7 | 0.00 | 0.00 | 0.00 | 33 | 1011.6 |
| 20260502054553 | 20 | 267 | 6.4 | 14.5 | 0.00 | 0.00 | 0.00 | 32 | 1011.6 |
| 20260502053058 | 20 | 231 | 3.2 | 8.0 | 0.00 | 0.00 | 0.00 | 33 | 1011.7 |
| 20260502051551 | 20 | 234 | 4.8 | 9.7 | 0.00 | 0.00 | 0.00 | 32 | 1011.8 |
| 20260502050150 | 21 | 141 | 3.2 | 14.5 | 0.00 | 0.00 | 0.00 | 32 | 1011.7 |
| 20260502044556 | 21 | 290 | 3.2 | 11.3 | 0.00 | 0.00 | 0.00 | 30 | 1011.7 |
| 20260502043122 | 21 | 148 | 8.0 | 17.7 | 0.00 | 0.00 | 0.00 | 30 | 1011.6 |
| 20260502041559 | 21 | 98 | 1.6 | 11.3 | 0.00 | 0.00 | 0.00 | 33 | 1011.7 |
| 20260502040048 | 21 | 55 | 11.3 | 17.7 | 0.00 | 0.00 | 0.00 | 37 | 1011.7 |
| 20260502034549 | 21 | 70 | 11.3 | 20.9 | 0.00 | 0.00 | 0.00 | 38 | 1011.7 |
| 20260502033048 | 21 | 37 | 9.7 | 24.1 | 0.00 | 0.00 | 0.00 | 39 | 1011.7 |
| 20260502031547 | 21 | 43 | 11.3 | 22.5 | 0.00 | 0.00 | 0.00 | 38 | 1011.7 |
| 20260502030049 | 21 | 40 | 20.9 | 29.0 | 0.00 | 0.00 | 0.00 | 36 | 1011.5 |
| 20260502024544 | 22 | 47 | 19.3 | 27.4 | 0.00 | 0.00 | 0.00 | 35 | 1011.5 |
| 20260502023043 | 20 | 40 | 11.3 | 19.3 | 0.00 | 0.00 | 0.00 | 41 | 1011.4 |
| 20260502021542 | 21 | 78 | 12.9 | 19.3 | 0.00 | 0.00 | 0.00 | 41 | 1011.4 |
| 20260502020042 | 21 | 53 | 14.5 | 20.9 | 0.00 | 0.00 | 0.00 | 43 | 1011.4 |
| 20260502014541 | 21 | 51 | 11.3 | 16.1 | 0.00 | 0.00 | 0.00 | 42 | 1011.4 |
| 20260502013048 | 22 | 49 | 9.7 | 16.1 | 0.00 | 0.00 | 0.00 | 42 | 1011.5 |
| 20260502011539 | 22 | 52 | 8.0 | 16.1 | 0.00 | 0.00 | 0.00 | 42 | 1011.7 |
| 20260502010038 | 22 | 13 | 12.9 | 20.9 | 0.00 | 0.00 | 0.00 | 42 | 1011.7 |
| 20260502004542 | 23 | 11 | 12.9 | 20.9 | 0.00 | 0.00 | 0.00 | 41 | 1011.7 |
| 20260502003033 | 23 | 2 | 16.1 | 24.1 | 0.00 | 0.00 | 0.00 | 37 | 1011.8 |
| 20260502001533 | 25 | 8 | 19.3 | 29.0 | 0.00 | 0.00 | 0.00 | 36 | 1012.0 |
| 20260502000030 | 25 | 20 | 17.7 | 27.4 | 0.00 | 0.00 | 0.00 | 34 | 1012.1 |
| 20260501234529 | 25 | 338 | 17.7 | 29.0 | 0.00 | 0.00 | 0.00 | 34 | 1012.2 |
| 20260501233027 | 25 | 33 | 17.7 | 27.4 | 0.00 | 0.00 | 0.00 | 35 | 1012.3 |